Wind_Speed
8 8 8 9 9 10 11 11 11 11 11 12 12 12 12 13 13 14 14 15 15 15 16 16 16 17 17 18 18 19 20 21 22 22 23 23 24 24
8 8 9 9 10 11 11 12 12 12 12 13 13 13 13 14 14 15 15 15 15 15 16 16 17 17 17 18 20 20 21 22 22 23 24 24 25 25
9 9 9 10 11 12 12 13 13 13 13 13 13 14 14 15 15 16 16 16 16 15 16 17 18 18 19 19 20 21 22 22 23 24 25 25 26 26
10 10 10 11 12 13 13 13 13 13 13 13 14 15 15 15 15 16 17 16 17 17 17 18 19 19 20 20 21 21 22 22 23 24 25 25 25 25
11 11 11 12 12 13 13 14 14 14 14 14 15 15 15 15 16 17 16 17 18 19 19 19 20 20 21 21 22 22 23 23 23 24 24 24 24 25
12 12 13 13 14 14 14 15 15 15 15 15 16 16 17 17 17 17 17 18 18 19 20 20 20 21 21 22 22 23 23 24 24 24 24 24 24 25
13 14 14 15 15 16 16 16 16 16 16 17 17 17 18 18 18 18 19 20 20 20 21 20 21 21 22 23 23 23 24 25 25 24 24 24 24 24
15 15 16 16 17 17 18 18 18 18 18 18 18 19 18 18 19 20 20 21 22 22 22 22 23 23 23 23 23 24 24 24 24 24 24 24 24 24
17 17 17 18 18 19 19 18 19 19 19 20 20 19 20 20 21 21 21 22 23 23 23 23 24 24 24 24 24 24 24 24 25 25 25 24 24 24
18 18 18 19 19 20 20 20 20 20 20 20 21 21 21 22 23 23 23 23 24 24 24 24 24 25 25 24 24 25 25 25 25 25 25 24 24 24
19 19 19 20 21 21 21 21 21 21 21 21 22 22 23 23 23 24 24 24 25 25 26 25 26 26 26 25 25 25 26 26 26 26 25 25 24 25
21 21 22 22 22 22 22 22 22 23 23 23 23 24 24 24 24 25 25 26 26 26 26 26 26 25 26 26 25 26 26 27 27 26 26 25 25 26
23 23 23 24 24 24 24 24 25 25 25 25 24 25 25 25 25 26 26 26 26 27 27 26 26 26 26 26 27 27 27 27 27 27 27 26 26 27
25 25 25 26 26 27 26 27 27 26 26 26 25 26 26 27 27 27 27 27 28 28 28 28 28 28 28 28 28 28 28 28 28 28 28 28 27 27
27 27 27 27 28 28 28 28 28 27 27 27 27 27 27 28 28 28 28 29 29 29 28 29 29 28 29 29 29 29 28 28 29 29 29 28 28 27
28 28 28 28 28 29 29 29 29 28 29 29 29 29 29 29 29 30 30 29 29 30 30 30 29 29 29 29 29 30 29 29 29 29 29 28 28 28
29 29 29 29 29 29 30 29 29 29 29 29 29 29 30 30 31 31 30 29 29 30 30 30 29 29 29 29 30 30 30 30 29 29 29 29 28 27
30 31 30 30 30 30 30 29 30 30 30 30 30 30 30 31 30 30 30 30 29 29 29 29 29 29 29 30 30 30 29 29 29 30 30 29 28 28
30 30 31 31 30 30 30 30 30 31 31 31 31 31 31 31 31 30 30 30 30 30 30 29 29 29 29 29 29 29 29 29 30 30 30 29 28 28
30 30 30 31 31 31 31 31 31 31 31 31 31 31 31 31 30 30 30 30 30 30 30 30 29 29 30 30 29 29 29 29 30 29 28 28 28 28
30 31 31 31 31 31 32 31 31 31 32 32 32 32 32 31 31 30 30 30 30 30 30 30 29 30 30 30 29 29 29 29 29 29 28 28 28 27
31 31 31 31 31 32 31 31 31 31 31 31 31 31 31 31 30 30 29 29 29 29 30 30 30 30 30 30 30 29 29 29 29 29 29 29 28 27
31 31 31 31 31 31 31 31 30 30 30 31 31 30 30 30 30 29 29 29 29 29 30 30 29 29 29 29 29 29 29 29 29 29 29 29 28 27
Wind_Direction
325 321 318 315 312 312 312 312 311 308 308 307 306 302 302 301 301 301 300 299 297 293 291 290 290 289 292 290 286 286 286 285 285 283 283 282 282 282
326 322 317 315 314 314 313 312 312 312 310 308 307 307 307 306 305 304 303 301 298 295 293 290 289 291 292 293 289 288 286 285 285 285 286 285 285 283
326 323 317 314 315 315 314 313 313 311 310 308 308 310 310 308 306 304 305 304 299 296 294 293 292 291 292 292 292 290 288 287 287 286 285 285 284 283
325 323 317 314 313 314 313 312 312 311 308 306 308 310 310 309 308 306 304 304 300 297 297 296 293 293 292 291 291 292 291 288 288 288 287 285 285 284
321 321 319 317 316 315 314 311 309 307 305 304 305 306 307 307 306 306 305 306 303 301 300 298 296 296 295 294 293 294 293 292 292 292 290 288 287 286
320 317 316 317 316 315 314 312 310 308 307 305 304 303 304 307 306 305 305 306 306 305 302 300 300 300 300 298 296 296 296 296 296 295 293 292 291 290
315 314 314 314 315 313 312 310 308 307 307 306 304 304 305 305 305 305 304 304 304 303 304 302 303 303 301 300 299 299 298 298 297 295 295 296 296 295
313 311 311 312 313 313 311 309 307 306 306 306 305 305 304 304 304 304 304 303 302 303 303 302 301 301 301 301 300 301 301 300 298 297 297 299 298 296
313 311 311 311 311 311 310 308 308 307 305 305 305 305 304 303 303 304 304 303 303 302 302 302 302 301 302 301 301 300 301 300 299 300 300 299 298 296
312 312 311 310 309 309 307 306 305 305 305 304 305 304 303 302 302 302 303 303 303 301 301 301 301 301 301 300 299 299 300 300 300 300 300 299 298 297
308 309 309 309 309 308 306 305 305 304 303 302 302 302 302 303 303 303 302 302 302 300 300 301 301 301 300 298 299 299 299 299 299 299 300 300 299 297
304 305 307 309 308 307 305 305 305 304 303 302 303 302 302 303 303 302 301 300 300 299 300 301 300 299 299 298 297 298 298 298 298 298 298 297 297 297
302 303 305 306 307 306 304 304 303 302 301 300 301 302 301 302 302 301 301 300 299 298 300 300 299 299 298 298 298 298 298 297 297 296 295 295 295 296
300 301 302 303 304 303 303 303 302 302 300 300 299 302 302 301 301 300 300 299 297 297 297 299 299 298 298 298 298 299 299 297 295 295 294 294 294 295
298 299 300 301 302 303 302 302 301 300 300 300 300 300 300 301 300 300 299 299 297 297 297 298 298 297 297 298 298 299 299 298 296 295 294 293 294 295
298 298 299 301 301 302 302 300 300 300 300 300 299 300 299 300 300 300 299 298 298 298 298 298 297 296 297 298 298 298 298 298 297 295 294 293 294 294
296 297 298 299 300 301 301 299 299 298 298 299 299 300 301 300 300 300 299 299 297 298 297 296 296 296 296 297 297 297 297 297 297 295 294 294 294 294
295 296 296 296 297 298 299 299 298 297 298 299 299 300 301 301 301 299 298 297 297 298 298 296 295 295 297 298 298 297 297 296 295 294 294 293 293 293
294 295 296 296 296 297 297 297 297 297 297 298 298 299 300 301 301 299 298 297 296 296 297 295 295 297 298 299 299 297 296 295 295 293 292 292 292 292
293 294 295 296 296 296 296 296 296 296 297 298 298 298 298 299 300 299 299 299 297 297 297 297 296 297 298 298 298 298 297 296 295 295 293 293 292 291
293 294 295 296 295 295 295 294 294 295 297 298 298 298 298 299 298 298 298 298 297 297 297 297 297 298 297 296 297 298 297 297 297 296 295 293 291 290
292 294 295 295 295 295 294 294 294 295 296 297 297 298 298 298 298 299 299 299 298 297 297 296 296 297 297 297 298 298 297 297 297 297 296 295 293 291
292 292 293 294 294 294 295 294 294 295 296 296 296 297 297 297 297 298 300 300 301 299 298 296 296 297 297 297 297 297 297 297 297 297 297 295 293 292
Height
5884 5882 5881 5879 5878 5876 5875 5873 5871 5869 5867 5865 5863 5861 5859 5857 5856 5854 5852 5850 5848 5846 5844 5843 5841 5839 5838 5836 5835 5833 5832 5830 5828 5826 5824 5822 5821 5819
5882 5880 5878 5877 5875 5873 5872 5870 5868 5866 5864 5862 5860 5858 5856 5854 5852 5850 5848 5846 5844 5842 5840 5839 5837 5835 5833 5831 5830 5828 5826 5824 5822 5820 5818 5816 5814 5812
5880 5878 5876 5874 5873 5871 5869 5867 5865 5863 5861 5859 5857 5855 5853 5851 5849 5847 5844 5842 5840 5838 5836 5834 5832 5830 5829 5826 5824 5822 5820 5818 5816 5813 5811 5809 5807 5805
5877 5875 5874 5872 5870 5868 5866 5864 5862 5860 5858 5856 5853 5851 5849 5847 5845 5842 5840 5838 5836 5834 5832 5830 5828 5826 5823 5821 5819 5816 5814 5811 5809 5806 5804 5802 5800 5798
5875 5873 5871 5869 5867 5865 5863 5860 5858 5856 5854 5852 5850 5847 5845 5843 5841 5838 5836 5834 5831 5829 5827 5825 5823 5820 5818 5815 5813 5810 5807 5805 5802 5800 5797 5795 5792 5790
5872 5870 5868 5866 5864 5862 5859 5857 5854 5852 5849 5848 5845 5843 5841 5839 5836 5834 5832 5829 5827 5824 5822 5819 5817 5814 5812 5809 5807 5804 5801 5798 5796 5793 5790 5788 5785 5783
5869 5867 5865 5863 5860 5858 5856 5853 5851 5848 5845 5843 5841 5839 5837 5834 5832 5829 5827 5824 5822 5819 5816 5814 5811 5809 5806 5803 5800 5797 5795 5792 5789 5786 5783 5781 5778 5776
5866 5863 5861 5859 5857 5854 5852 5849 5847 5844 5841 5839 5836 5834 5832 5830 5827 5824 5822 5819 5817 5814 5811 5808 5805 5803 5800 5797 5794 5791 5788 5785 5782 5780 5777 5774 5771 5769
5862 5859 5857 5855 5852 5850 5847 5845 5842 5839 5837 5835 5832 5829 5827 5824 5822 5819 5816 5814 5811 5808 5805 5802 5799 5796 5794 5791 5788 5785 5782 5779 5776 5773 5770 5767 5765 5762
5858 5855 5853 5850 5848 5845 5843 5840 5838 5835 5832 5829 5827 5824 5821 5819 5816 5813 5810 5807 5805 5802 5798 5796 5793 5790 5787 5784 5781 5778 5775 5772 5769 5766 5764 5761 5758 5755
5854 5851 5849 5846 5843 5840 5838 5835 5833 5830 5827 5824 5821 5819 5816 5812 5809 5807 5804 5801 5798 5795 5792 5789 5786 5783 5780 5778 5775 5772 5769 5766 5763 5760 5757 5754 5751 5749
5849 5846 5844 5841 5838 5835 5833 5830 5827 5824 5821 5818 5815 5812 5809 5806 5803 5800 5797 5794 5791 5788 5785 5782 5780 5776 5774 5771 5768 5765 5762 5759 5756 5753 5750 5747 5745 5742
5844 5841 5838 5835 5832 5829 5827 5824 5821 5818 5815 5812 5809 5805 5803 5799 5796 5793 5790 5787 5784 5781 5778 5775 5772 5769 5767 5764 5761 5758 5755 5752 5749 5746 5743 5740 5737 5735
5837 5835 5832 5829 5826 5823 5820 5817 5814 5811 5808 5805 5802 5799 5795 5792 5789 5786 5782 5779 5776 5774 5771 5768 5765 5762 5759 5757 5754 5750 5747 5744 5741 5738 5735 5733 5730 5727
5830 5827 5825 5822 5819 5816 5813 5810 5807 5804 5801 5797 5794 5791 5788 5785 5782 5778 5775 5772 5769 5766 5763 5760 5757 5754 5751 5748 5745 5742 5739 5736 5733 5730 5728 5725 5722 5719
5822 5820 5817 5814 5811 5808 5805 5802 5799 5796 5793 5790 5787 5784 5780 5777 5774 5770 5767 5764 5761 5758 5755 5752 5749 5746 5743 5740 5737 5734 5731 5728 5725 5722 5719 5717 5714 5711
5814 5812 5809 5807 5804 5801 5798 5794 5791 5788 5785 5782 5779 5775 5772 5769 5765 5762 5759 5756 5753 5750 5747 5744 5740 5738 5735 5732 5729 5726 5723 5720 5717 5714 5711 5708 5705 5703
5806 5804 5801 5798 5795 5792 5789 5786 5783 5780 5777 5774 5771 5767 5764 5760 5757 5754 5750 5747 5744 5741 5738 5735 5732 5729 5726 5723 5721 5717 5714 5711 5709 5706 5703 5700 5697 5695
5797 5795 5792 5789 5787 5784 5781 5778 5775 5772 5768 5765 5762 5759 5755 5752 5748 5745 5742 5738 5735 5732 5729 5726 5723 5721 5718 5715 5712 5709 5706 5703 5700 5697 5694 5692 5689 5687
5788 5786 5783 5780 5778 5775 5771 5769 5765 5762 5759 5756 5753 5750 5746 5743 5740 5736 5733 5730 5727 5724 5721 5718 5715 5712 5710 5707 5703 5700 5697 5694 5691 5688 5686 5683 5681 5678
5779 5777 5774 5771 5768 5765 5762 5759 5756 5753 5750 5747 5744 5741 5737 5734 5731 5728 5724 5721 5718 5715 5713 5710 5707 5704 5701 5698 5695 5692 5689 5686 5683 5679 5677 5675 5673 5670
5769 5767 5765 5762 5759 5756 5753 5750 5747 5744 5741 5738 5735 5732 5728 5725 5722 5719 5715 5712 5709 5707 5704 5701 5698 5696 5693 5690 5687 5684 5681 5678 5674 5671 5668 5667 5664 5662
5760 5757 5755 5753 5750 5747 5744 5741 5738 5735 5732 5729 5726 5723 5720 5717 5713 5710 5707 5704 5701 5698 5695 5693 5690 5687 5684 5681 5678 5675 5672 5669 5666 5664 5661 5658 5656 5654